Regional Weather Roundup
Issued by NWS

Home | Current Version | Previous Version | Text Only | Print | Product List | Glossary On
Versions: 1 2 3 4 5 6 7 8 9 10 11 12 13 14 15 16 17 18 19 20 21 22 23 24 25 26 27 28 29 30 31 32 33 34 35 36 37 38 39 40 41 42 43 44 45 46 47 48 49 50
000
ASUS43 KMPX 300610
RWRMN
WEATHER ROUNDUP FOR MINNESOTA
NATIONAL WEATHER SERVICE TWIN CITIES/CHANHASSEN MN
100 AM CDT TUE JUN 30 2015


NOTE: "FAIR" INDICATES FEW OR NO CLOUDS BELOW 12,000 FEET WITH NO
SIGNIFICANT WEATHER AND/OR OBSTRUCTIONS TO VISIBILITY. N/A MEANS
CURRENT SKY AND/OR WEATHER CONDITIONS ARE NOT AVAILABLE.

MNZ060>063-068>070-300700-
   Twin Cities Metro

CITY           SKY/WX    TMP DP  RH WIND       PRES   REMARKS
TWIN CITIES    PTCLDY    65  63  93 CALM      29.84S
6HR MIN TEMP:  65; 6HR MAX TEMP:  81; 6HR PCP:  0.11;

ST PAUL        MOCLDY    63  62  97 CALM      29.84S FOG
CRYSTAL        CLEAR     64  61  90 CALM      29.83S FOG
BLAINE         PTCLDY    64  63  94 CALM      29.84S FOG
LAKEVILLE      PTCLDY    61  61 100 CALM      29.84S
EDEN PRAIRIE   PTCLDY    65  63  93 CALM      29.83S FOG
6HR MIN TEMP:  64; 6HR MAX TEMP:  80; 6HR PCP:  0.68;

SOUTH ST PAUL  PTCLDY    64  62  93 CALM      29.84S
LAKE ELMO      MOCLDY    61  61 100 CALM      29.85S FOG
$$
MNZ001>005-007-008-013>017-022>024-027-028-300700-
   Northwest Minnesota

CITY           SKY/WX    TMP DP  RH WIND       PRES   REMARKS
BEMIDJI        CLEAR     56  54  93 CALM      29.92S
HALLOCK        CLEAR     57  55  94 N5        29.94R
ROSEAU         CLEAR     61  55  82 CALM      29.94S
WARROAD        CLEAR     64  59  82 NE10G20   29.95R
THIEF RVR FALL PTCLDY    61  57  88 CALM      29.94R
CROOKSTON      CLEAR     63  61  94 NE3       29.93S
FOSSTON        PTCLDY    54  52  94 CALM      29.94S
DETROIT LAKES  CLEAR     64  59  82 NE5       29.93S
MOORHEAD       CLEAR     63  59  88 N6        29.92S
PARK RAPIDS    CLEAR     65  57  75 NE3       29.92S
MAHNOMEN       FAIR      60  59  94 CALM      29.92S
$$
MNZ006-009>011-018-025>026-300700-
   North Central Minnesota

CITY           SKY/WX    TMP DP  RH WIND       PRES   REMARKS
BAUDETTE       CLEAR     60  54  80 NE7       29.94R
FLAG ISLAND    CLEAR     63  54  72 E3        29.95R
INTL FALLS     CLEAR     59  52  77 E9        29.94R
6HR MIN TEMP:  59; 6HR MAX TEMP:  71;

WASKISH        CLEAR     61  55  82 NE3       29.93S
BIG FORK       CLEAR     57  54  88 N3        29.93R
LONGVILLE      CLEAR     57  55  94 CALM      29.91S
GRAND RAPIDS   CLEAR     57  52  82 CALM      29.91R
CRANE LAKE     CLEAR     55  52  88 N5        29.94S
ORR            CLEAR     57  52  82 NE3       29.90R
COOK           CLEAR     59  55  88 N5        29.92R
WALKER         FAIR      59  55  87 CALM      29.91F
$$
MNZ012-019>021-037-300700-
   Northeast Minnesota

CITY           SKY/WX    TMP DP  RH WIND       PRES   REMARKS
DULUTH         MOCLDY    64  57  78 NE6       29.87R
6HR MIN TEMP:  62; 6HR MAX TEMP:  74;

ELY            CLEAR     57  54  88 N3        29.90S
HIBBING        CLEAR     58  54  86 N7        29.90R
EVELETH        CLEAR     61  55  82 N6        29.90S
DULUTH HARBOR  MOCLDY    63  61  94 NE8       29.86R
TWO HARBORS    PTCLDY    63  57  82 VRB1      29.85S
GRAND MARAIS     N/A     58  55  90 CALM      29.86R
G MARAIS ARPRT MOCLDY    55  50  82 N12       29.90R
$$
MNZ029>031-032-039>041-046>048-054>057-064-300700-
   West Central Minnesota

CITY           SKY/WX    TMP DP  RH WIND       PRES   REMARKS
FERGUS FALLS   PTCLDY    64  63  94 N3        29.91R
WHEATON        PTCLDY    63  61  94 NW3       29.93S
MORRIS         CLEAR     64  63  94 NW7       29.90S
ALEXANDRIA     CLEAR     66  63  90 N7        29.92R
ELBOW LAKE     FAIR      63  63  97 NW6       29.91S
WADENA         CLEAR     63  57  82 CALM      29.91S
GLENWOOD       CLEAR     64  63  94 NW5       29.90S
APPLETON       PTCLDY    64  61  88 NW6       29.90R
BENSON         CLEAR     64  61  88 N3        29.90R
ORTONVILLE     PTCLDY    66  61  82 N7        29.91S
MADISON        PTCLDY    64  61  88 NW6       29.91S
WILLMAR        FAIR      64  63  94 NW6       29.90S
$$
MNZ033>034-036-042>043-049>051-058-059-300700-
   Central Minnesota

CITY           SKY/WX    TMP DP  RH WIND       PRES   REMARKS
ST CLOUD       CLEAR     63  58  83 N5        29.87R
6HR MIN TEMP:  63; 6HR MAX TEMP:  80; 6HR PCP:  0.04;

SAUK CENTRE    FAIR      65  63  95 N6        29.90R
PAYNESVILLE    CLEAR     64  63  94 W6        29.89S
AITKIN         CLEAR     59  54  82 CALM      29.89R
PINE RIVER       N/A     63  55  77 N5        29.94S
BRAINERD       CLEAR     65  57  75 NE10      29.90R
STAPLES        CLEAR     63  57  82 CALM      29.91R
LONG PRAIRIE   FAIR      63  61  94 NW3       29.90S
LITTLE FALLS   CLEAR     64  55  72 CALM      29.89R
LITCHFIELD     CLEAR     68  66  94 NW5       29.88S
BUFFALO        CLEAR     67  59  74 NW3       29.86S
MAPLE LAKE     CLEAR     68  61  78 NW5       29.87S
$$
MNZ037-044-045-052-053-300700-
   East Central Minnesota

CITY           SKY/WX    TMP DP  RH WIND       PRES   REMARKS
PRINCETON      CLEAR     64  61  88 CALM      29.86S
MORA           PTCLDY    59  57  94 CALM      29.89R
CAMBRIDGE      PTCLDY    64  55  72 CALM      29.84S HAZE
MOOSE LAKE     PTCLDY    61  61 100 N3        29.86R
HINCKLEY       FAIR      63  61  94 N6        29.87R
CLOQUET        MOCLDY    61  55  82 N6        29.88R
MCGREGOR       CLEAR     63  55  77 N3        29.89S
$$
MNZ071>073-080-081-089-090-097-098-300700-
   Southwest Minnesota

CITY           SKY/WX    TMP DP  RH WIND       PRES   REMARKS
MONTEVIDEO     CLEAR     64  61  88 NW6       29.91R
GRANITE FALLS  CLOUDY    66  63  90 NW7       29.91S
CANBY          MOCLDY    64  61  91 W7        29.93R
MARSHALL       CLEAR     64  59  82 NW8       29.91S
REDWOOD FALLS  CLEAR     68  64  87 NW8       29.88R
OLIVIA         CLEAR     64  61  88 NW6       29.88R
PIPESTONE      CLEAR     68  63  83 N3        29.94S
WINDOM         CLEAR     66  63  88 NW9       29.90S
WORTHINGTON    CLOUDY    64  59  82 NW7       29.93R
JACKSON        CLEAR     64  63  94 NW6       29.91R
TRACY          CLOUDY    66  64  93 NW7       29.91F
SLAYTON        MOCLDY    65  63  92 CALM      29.93S
$$
MNZ065>067-074>077-082>085-091>093-300700-
   South Central Minnesota

CITY           SKY/WX    TMP DP  RH WIND       PRES   REMARKS
MANKATO        CLEAR     68  63  83 NW6       29.85S
NEW ULM        CLEAR     64  64 100 NW7       29.87R
ST JAMES       CLEAR     68  64  88 W8        29.88S
FAIRMONT       CLEAR     66  59  77 NW8       29.87S
GLENCOE        CLEAR     68  65  93 NW5       29.85S
FARIBAULT      CLEAR     61  57  88 CALM      29.85R
OWATONNA       CLEAR     63  57  82 CALM      29.85S
WASECA         CLEAR     63  61  94 CALM      29.86R FOG
ALBERT LEA     CLEAR     64  61  88 CALM      29.85S
$$
MNZ078>079-086>088-094>096-300700-
   Southeast Minnesota

CITY           SKY/WX    TMP DP  RH WIND       PRES   REMARKS
ROCHESTER      CLEAR     59  57  93 NE3       29.86R FOG
6HR MIN TEMP:  59; 6HR MAX TEMP:  69; 6HR PCP:  0.24;

RED WING       PTCLDY    59  57  94 CALM      29.83S FOG
STANTON        CLEAR     61  57  88 CALM      29.83S
DODGE CENTER   CLEAR     61  57  88 W6        29.85S
WINONA         CLOUDY    61  59  94 CALM      29.83F FOG
AUSTIN         CLEAR     61  57  88 SW3       29.85S
PRESTON          N/A     57  56  96 CALM      29.86S FOG
$$
ABBREVIATIONS USED IN REMARKS
   TC - TEMPERATURES IN CELSIUS
  WCI - WIND CHILL INDEX
   HX - HEAT INDEX
  VSB - VISIBILITY
$$


USA.gov is the U.S. government's official web portal to all federal, state and local government web resources and services.